Temp_Advection
nan nan nan nan nan nan nan nan nan nan nan nan nan nan nan nan nan nan nan nan nan nan nan nan nan nan nan nan nan nan nan nan nan nan nan nan nan nan nan nan nan nan nan nan nan
nan -1 -0 -1 -0 0 0 0 0 -0 -0 0 -0 -0 -0 -0 0 -0 -0 0 -0 0 0 0 0 0 0 0 -0 -0 0 0 -0 0 0 0 0 0 0 0 -0 0 0 0 nan
nan -0 -0 -1 0 -0 -0 0 0 0 -0 0 0 0 -0 0 -0 -0 0 0 -0 -0 0 0 0 -0 -0 -0 -0 -0 -0 0 0 0 0 0 0 0 0 0 0 0 0 0 nan
nan 0 -1 -0 0 0 -0 0 0 0 0 0 0 0 0 0 -0 0 0 0 0 -0 0 0 0 -0 -0 0 -0 -0 -0 0 0 0 0 -0 0 0 0 0 0 0 0 0 nan
nan -0 -1 0 0 -0 -0 0 0 0 0 0 0 0 -0 -0 0 0 0 0 0 0 0 0 -0 -1 -0 0 -0 -0 0 0 0 0 -0 -0 -0 -0 -0 -0 -0 0 0 0 nan
nan -0 -0 1 0 -0 0 -0 -0 0 0 -0 0 1 -0 -0 0 0 0 0 0 0 0 0 0 -1 -1 -0 -0 -0 0 0 0 -0 -0 -0 0 -0 0 0 0 0 0 0 nan
nan -0 -0 0 1 0 -0 -0 -0 0 0 0 0 1 0 0 1 1 0 0 0 0 -0 0 0 -0 -1 -0 0 0 -0 -0 -0 -0 -0 0 -0 0 -0 -0 0 0 0 -0 nan
nan -0 -0 0 1 1 0 -0 -0 0 1 1 1 -1 -0 0 1 1 0 0 0 0 -0 0 0 -1 -0 -0 -0 -0 0 0 0 -0 0 0 -0 0 0 0 0 -0 -0 0 nan
nan 0 0 0 0 0 0 0 -1 -0 1 1 2 -1 0 1 1 0 0 0 0 0 0 0 -0 -1 -0 -0 -0 0 0 0 -0 -0 -0 0 -0 0 -0 0 -0 -0 0 0 nan
nan 1 1 -0 -1 -0 0 0 0 -0 0 1 1 0 0 0 1 1 1 0 0 0 0 -0 -1 -1 -0 0 0 -0 -0 0 0 0 -0 -0 -0 -1 -1 0 -1 -0 0 0 nan
nan -0 0 0 -0 -1 -0 0 0 -0 -1 -0 0 1 1 1 0 0 0 0 0 -1 -1 -1 -1 0 0 0 0 0 0 0 -0 -0 -0 0 -0 -1 -0 0 -0 -1 -1 -0 nan
nan 0 0 -0 -0 -0 -0 -1 -0 0 0 1 0 0 0 0 0 0 0 -0 -1 -0 -0 -0 0 -0 -0 0 0 0 0 -0 -0 -0 -0 -0 -1 -1 0 1 0 -0 -0 0 nan
nan 0 0 0 -1 -0 -0 -1 -0 0 0 -0 -0 0 0 -0 -0 0 -0 -1 -1 -0 -0 0 -0 0 -0 0 -0 0 0 0 0 0 -0 -0 -0 -0 0 0 -0 -0 -0 -0 nan
nan 0 -0 0 0 0 -0 -0 -0 -0 -0 -1 -0 0 0 -0 0 0 -0 -0 -0 -0 -0 0 -0 0 -0 0 0 -0 0 0 -0 -0 0 0 -0 0 0 0 -0 -0 -0 -0 nan
nan 0 0 -0 0 0 0 0 0 0 -0 -0 -0 -0 -0 -0 0 0 0 -0 -0 0 0 -0 0 0 0 0 -0 0 -0 -0 -0 -0 -0 0 -0 -0 -0 -0 0 -0 -1 -1 nan
nan 0 -0 -0 -0 -0 0 0 -0 -1 0 -0 -0 -0 -0 -0 -0 -0 -0 -1 -0 -0 -0 0 0 -0 0 -0 -0 0 -0 -0 -0 0 0 -0 0 -0 -0 -0 0 -0 -0 -0 nan
nan 0 0 -0 -0 -0 -0 0 -1 0 -0 -0 -0 0 -0 -0 -0 -0 -0 -0 0 -0 -0 -0 -0 -0 0 -0 -0 -0 -0 -0 0 0 -0 -0 -0 -1 0 0 -0 -0 -0 -0 nan
nan -0 -0 0 0 0 -0 -1 -0 -0 -0 -0 0 0 -0 0 0 -0 -0 -0 -0 -0 -0 0 -0 0 -0 0 -0 -0 -0 0 0 0 0 -0 -0 -0 0 -0 -0 -1 -0 -0 nan
nan 0 0 0 0 0 -0 -1 -0 -0 -0 -0 0 -0 0 0 -0 -0 -0 0 0 0 0 -0 -0 -0 0 0 -0 -0 -0 -0 -0 0 -0 0 -0 -1 0 -0 -1 -1 -1 -1 nan
nan 0 0 0 0 -0 -1 0 0 -0 0 0 0 -0 -0 0 -0 -0 0 -0 0 -0 -0 -0 -0 -0 0 -0 -0 -0 -0 -0 0 -0 -0 0 -0 -0 -0 -0 0 -0 -2 -1 nan
nan -0 0 0 -0 -2 -1 0 0 0 0 -0 0 0 0 0 -0 0 -0 0 -0 -0 -0 -0 -0 -0 -0 0 0 0 0 -0 -0 0 -0 -0 0 0 -0 -0 0 -0 -1 -0 nan
nan -0 0 0 -1 -1 0 0 0 0 0 -0 0 -0 -0 0 0 0 -0 -0 -0 -0 -0 -0 -0 0 -0 0 0 0 0 0 0 0 0 -0 -0 -0 0 -0 -0 -1 -0 -0 nan
nan -0 0 -0 -1 0 0 0 0 -0 0 0 0 -0 -0 -0 -0 -0 -0 0 0 -0 -0 -0 -0 0 -0 0 -0 0 0 0 -0 0 -0 -0 -0 0 0 -0 -0 -1 -1 -0 nan
nan -0 -0 -1 -1 -0 0 0 0 0 0 -0 0 0 0 0 0 0 0 0 0 -0 0 -0 -0 0 0 0 -0 0 -0 -0 -0 -0 -0 -1 -1 -1 0 0 -1 -1 -1 -0 nan
nan -0 -0 -0 0 0 0 0 0 -0 0 0 0 0 0 0 0 0 0 0 0 0 0 0 0 0 -0 0 -0 -0 0 0 -0 -1 -0 0 -0 -0 0 -0 -1 -0 -0 -1 nan
nan 0 0 0 -0 -0 0 -0 -0 -0 -0 -0 -0 0 0 0 -0 -0 -0 -0 -0 0 0 0 0 -0 -0 -0 0 -0 -0 -1 -0 0 -1 -0 -2 -1 0 1 -0 -1 -0 -0 nan
nan nan nan nan nan nan nan nan nan nan nan nan nan nan nan nan nan nan nan nan nan nan nan nan nan nan nan nan nan nan nan nan nan nan nan nan nan nan nan nan nan nan nan nan nan
Wind_Speed
38 41 44 22 4 7 13 15 12 9 9 10 10 11 14 11 21 21 18 9 6 12 14 18 20 20 16 8 6 4 4 3 5 5 4 1 2 2 4 6 4 3 4 8 10
39 40 40 22 10 10 14 13 8 9 13 11 11 12 13 17 19 21 10 7 11 13 17 20 22 19 9 5 4 5 3 4 1 1 3 3 3 2 3 4 4 7 8 9 9
38 39 39 17 12 10 13 14 15 15 15 12 13 10 15 20 14 5 4 12 12 16 17 20 22 16 7 6 4 3 3 4 2 4 4 3 3 1 3 1 3 5 9 8 7
36 38 41 21 16 12 12 16 19 16 15 18 15 18 18 15 3 4 2 13 16 16 16 18 19 7 4 5 4 6 6 4 3 4 4 3 2 2 1 2 4 5 9 6 6
36 36 37 29 20 17 18 20 21 21 21 20 22 20 24 17 7 8 10 14 17 17 17 17 17 8 5 6 5 5 3 7 7 8 8 3 2 1 3 4 7 8 10 9 9
35 36 35 34 19 20 20 21 24 24 24 25 25 22 26 17 7 11 13 17 16 15 15 17 9 13 11 6 6 5 10 7 8 7 7 4 1 4 2 4 1 3 9 8 8
31 32 35 44 43 33 28 28 28 26 25 28 26 27 32 9 13 15 16 18 16 15 17 12 15 3 7 6 8 6 5 3 10 6 4 6 2 4 4 5 6 6 5 6 8
32 25 31 32 33 37 34 36 29 25 28 30 31 34 17 12 16 20 20 19 14 15 16 16 11 17 6 14 6 5 4 3 4 7 4 3 6 2 1 6 7 9 8 8 11
31 34 21 27 32 31 32 33 37 33 32 23 29 25 6 11 16 20 21 21 18 18 16 13 11 9 5 5 5 6 3 1 1 4 3 3 5 3 3 5 11 14 16 18 18
26 33 36 15 21 30 27 27 24 29 28 29 24 12 7 11 14 16 18 18 16 16 9 7 8 4 4 4 4 4 5 1 0 4 3 3 10 12 21 18 24 24 22 21 21
13 19 27 31 17 28 29 16 9 19 32 19 18 13 15 19 14 13 15 15 11 10 5 8 9 3 2 3 3 5 4 3 2 2 4 4 8 16 17 20 24 27 25 24 20
13 11 15 21 17 16 9 16 12 9 15 26 23 22 16 10 14 13 8 5 7 5 2 7 5 1 1 6 6 5 4 2 3 2 3 5 17 16 16 15 14 14 14 12 9
15 10 10 17 22 26 28 24 14 9 7 16 18 20 11 16 10 14 8 7 8 7 6 6 2 1 3 5 5 4 5 1 0 5 1 7 8 6 1 4 7 9 7 8 9
17 13 9 9 10 13 7 4 2 5 5 12 12 11 11 3 7 15 8 4 6 5 4 6 2 3 4 4 1 3 1 2 2 3 3 4 5 6 3 6 6 12 13 12 12
16 14 10 7 6 7 8 4 2 1 6 7 8 7 11 7 2 11 10 8 5 4 2 1 2 3 5 2 1 3 2 2 2 3 3 1 0 8 3 5 5 10 17 15 13
14 14 10 5 5 4 4 6 3 6 1 6 6 7 5 11 5 4 6 11 5 6 6 2 2 3 2 2 3 4 3 5 3 2 2 1 2 6 4 4 2 2 8 16 16
7 14 11 8 3 3 1 4 5 7 3 6 3 5 2 6 6 7 5 5 3 5 4 5 3 2 1 3 1 3 4 3 5 3 4 0 1 12 5 6 5 4 5 7 13
7 7 12 9 6 3 1 4 9 4 3 3 2 2 5 7 5 6 2 3 4 4 3 4 4 1 1 1 4 2 3 4 5 2 4 1 7 6 5 5 10 14 14 13 13
8 5 14 11 7 2 2 7 6 5 3 5 2 5 4 2 3 5 5 2 2 2 3 3 2 1 1 1 1 2 1 3 6 1 3 3 8 12 6 9 16 19 12 16 15
7 3 14 13 9 5 6 4 2 2 2 2 3 1 2 2 3 3 2 1 2 2 2 1 2 2 1 2 4 1 4 3 2 1 4 5 6 6 5 4 5 10 23 20 15
5 1 13 12 7 9 4 2 2 2 3 3 3 2 1 1 2 2 2 2 3 3 4 3 4 3 2 4 6 4 1 2 2 3 2 4 6 7 6 5 5 7 9 11 10
5 3 13 9 6 5 2 4 3 2 2 3 2 1 4 2 2 1 2 4 6 5 3 1 3 3 8 1 2 3 5 5 3 4 3 1 9 3 7 7 8 11 7 8 10
5 5 9 7 4 2 2 3 1 3 2 2 2 3 1 2 1 2 2 2 7 4 5 4 0 3 4 3 3 3 4 4 2 2 7 5 6 0 3 5 8 13 16 17 19
6 4 7 9 7 6 4 1 3 2 3 3 2 2 2 3 2 2 2 1 6 4 4 5 3 5 5 4 3 4 5 7 6 4 4 11 9 14 8 6 13 21 26 30 34
8 3 4 3 6 4 2 4 2 2 2 5 2 4 4 4 4 4 4 2 3 5 5 5 4 4 6 9 6 13 14 10 16 18 10 1 12 15 7 8 20 30 35 34 30
5 4 4 2 3 1 3 4 5 2 5 3 3 2 5 5 7 7 5 4 5 2 5 1 3 3 5 5 6 9 16 18 21 20 20 22 29 23 35 25 24 25 24 32 30
7 5 3 3 3 1 1 2 2 2 3 3 6 3 3 11 17 12 10 4 6 8 7 5 4 1 5 3 8 9 8 14 8 6 19 17 27 12 17 11 18 25 27 29 25
Wind_Direction
8 8 5 354 146 172 167 171 176 188 167 155 170 183 181 131 128 125 93 78 118 151 150 151 150 147 145 117 101 106 70 132 165 165 153 143 118 87 96 117 100 105 131 147 165
11 14 12 25 118 140 153 148 175 152 139 148 159 165 139 134 135 115 90 141 154 147 150 153 148 146 128 107 64 70 88 147 115 97 133 100 106 120 138 127 95 117 131 147 170
17 20 17 31 78 153 140 139 128 129 136 132 135 141 148 129 109 52 119 141 148 147 147 152 150 145 79 86 38 52 106 151 77 87 114 104 78 67 131 162 169 181 162 173 191
23 24 26 74 64 89 125 125 118 124 127 126 131 135 121 138 72 4 115 142 142 146 142 149 149 108 68 83 55 93 59 98 98 64 105 82 86 83 183 145 131 168 189 202 224
32 29 38 78 37 99 112 121 123 123 121 128 129 134 159 95 14 87 115 132 135 143 147 153 144 105 89 97 77 76 116 74 85 79 63 98 71 288 256 218 260 232 222 241 258
33 34 42 40 74 102 113 123 117 117 119 127 127 138 118 77 58 100 115 129 124 133 148 151 137 117 90 66 62 95 104 101 63 54 48 37 340 333 173 144 116 192 222 236 247
33 36 45 56 93 103 110 113 113 115 119 123 111 113 95 69 84 103 118 126 115 129 145 141 132 123 107 95 107 101 74 71 28 16 31 351 251 228 203 226 226 200 211 242 254
34 35 41 64 69 99 104 110 101 126 125 123 115 105 82 81 92 104 114 122 114 127 125 109 117 107 77 114 53 59 48 84 353 1 17 31 263 200 215 208 219 228 234 261 275
40 42 59 62 76 90 97 99 94 99 110 106 113 95 61 97 97 104 114 114 112 107 100 106 111 79 75 78 47 14 138 109 87 28 351 59 271 253 209 233 253 254 263 270 276
55 57 54 63 90 89 99 91 87 92 90 87 95 78 65 69 91 99 111 117 117 111 91 74 67 70 33 63 176 168 120 67 220 340 358 284 266 272 274 269 267 272 273 273 273
51 66 53 51 109 110 110 107 85 64 69 86 103 101 95 81 83 102 116 123 106 73 52 32 70 85 53 23 115 119 98 105 324 6 328 268 278 278 279 272 268 275 282 278 270
35 47 56 69 89 112 118 95 89 116 77 62 70 73 70 83 82 73 105 84 64 72 28 38 71 264 250 74 82 68 91 32 299 356 353 345 293 279 270 258 265 275 274 264 240
36 46 70 84 95 110 101 101 103 86 86 41 38 40 38 70 51 33 70 81 75 55 37 98 174 330 101 55 80 43 110 119 237 324 55 322 282 309 325 260 259 252 243 219 210
34 51 62 120 111 122 116 113 77 55 77 343 355 24 3 63 52 36 51 80 47 117 89 84 335 109 83 76 78 105 168 104 50 38 265 7 282 296 292 291 243 241 229 221 216
32 38 58 77 121 128 137 144 236 317 70 308 326 3 22 68 88 19 37 66 80 78 102 255 56 74 72 81 12 126 73 70 73 81 20 16 0 270 350 291 263 240 232 227 226
25 27 30 68 75 100 132 135 126 45 15 338 332 358 10 25 34 41 55 72 102 70 36 78 46 49 96 70 63 129 78 46 55 56 358 12 137 279 222 222 257 256 231 229 230
16 24 19 31 51 25 97 144 44 79 308 310 356 5 53 6 20 27 22 26 87 87 17 10 353 330 108 88 62 85 61 342 352 13 234 160 291 248 262 240 223 231 257 244 232
354 17 20 19 24 42 80 62 68 214 213 291 345 41 75 11 20 4 47 46 37 64 95 131 322 173 268 109 158 81 130 151 220 256 288 8 239 250 219 283 248 256 261 245 243
347 357 11 13 8 46 148 51 172 208 174 148 97 69 25 31 98 42 24 28 346 31 100 128 299 345 42 80 86 160 131 147 105 170 291 248 281 283 268 254 250 253 247 248 247
347 349 4 9 17 31 73 115 104 184 136 39 101 152 130 318 69 62 25 246 24 79 68 101 72 354 43 60 41 142 150 81 19 221 266 274 276 245 308 278 232 244 244 252 257
2 37 3 5 30 50 93 129 137 98 51 61 143 104 103 133 106 140 185 266 173 120 91 117 101 317 22 210 183 149 206 96 141 169 210 302 266 214 231 239 242 264 258 261 265
16 41 360 9 43 46 64 125 133 159 124 101 103 109 162 147 101 333 230 232 174 151 118 142 135 212 214 298 179 180 195 169 153 208 228 275 272 250 245 282 284 276 287 278 275
16 5 3 15 92 49 130 87 101 133 179 138 151 176 122 150 82 190 209 346 177 148 160 178 4 344 343 19 15 242 201 184 111 95 204 166 262 348 310 290 263 267 277 283 285
9 18 22 51 65 113 125 142 139 162 147 165 164 136 132 169 213 202 230 176 183 180 172 154 169 193 199 202 152 224 209 200 182 196 194 227 281 263 296 290 287 288 292 297 296
25 55 28 339 14 70 83 154 128 195 219 190 174 209 177 176 184 213 201 179 196 194 154 151 225 186 249 246 236 251 249 205 212 223 215 1 237 270 256 276 282 290 293 297 297
34 25 12 29 346 58 3 212 176 176 155 247 222 183 191 194 194 204 165 202 201 167 164 216 257 173 276 258 223 255 240 230 229 231 250 258 276 278 278 281 279 285 289 294 295
30 12 6 7 3 16 260 169 239 194 213 199 194 154 214 243 241 236 211 225 202 164 187 164 164 97 268 322 300 280 234 214 209 214 224 239 247 284 288 280 281 301 302 302 308
Height
1457 1449 1438 1425 1425 1431 1435 1440 1444 1447 1450 1455 1462 1463 1463 1463 1470 1473 1478 1486 1486 1489 1492 1494 1498 1501 1505 1508 1510 1511 1523 1533 1533 1533 1534 1534 1534 1536 1537 1538 1539 1540 1540 1542 1544
1459 1450 1440 1430 1427 1432 1436 1441 1445 1449 1453 1457 1461 1465 1464 1469 1472 1474 1482 1485 1485 1488 1492 1495 1498 1502 1506 1509 1512 1513 1525 1529 1532 1532 1533 1534 1535 1536 1538 1538 1540 1541 1541 1542 1544
1463 1453 1443 1433 1433 1436 1439 1443 1447 1452 1456 1460 1461 1462 1471 1473 1477 1481 1482 1483 1487 1490 1493 1497 1501 1504 1507 1510 1514 1518 1526 1529 1532 1532 1533 1534 1536 1537 1537 1538 1539 1540 1541 1542 1543
1466 1458 1448 1438 1440 1441 1444 1448 1451 1455 1458 1462 1463 1464 1466 1473 1485 1484 1484 1486 1489 1492 1496 1498 1502 1504 1511 1514 1517 1524 1529 1529 1532 1532 1533 1535 1537 1538 1537 1538 1538 1539 1540 1541 1542
1472 1465 1458 1450 1447 1446 1450 1454 1456 1459 1461 1463 1468 1469 1474 1481 1488 1488 1487 1489 1492 1494 1499 1501 1503 1506 1512 1516 1519 1524 1530 1531 1533 1533 1534 1535 1536 1537 1536 1537 1537 1538 1539 1540 1539
1478 1472 1465 1458 1452 1451 1454 1459 1462 1465 1466 1468 1471 1476 1479 1487 1491 1490 1490 1493 1496 1497 1502 1504 1505 1508 1513 1519 1521 1528 1530 1533 1534 1534 1535 1535 1536 1536 1536 1536 1536 1536 1537 1538 1538
1483 1479 1474 1468 1458 1453 1461 1466 1469 1470 1472 1474 1477 1478 1474 1495 1494 1493 1494 1497 1499 1502 1504 1506 1507 1510 1515 1521 1527 1529 1534 1534 1537 1536 1537 1536 1535 1536 1535 1535 1536 1536 1536 1535 1535
1489 1486 1482 1477 1475 1473 1472 1473 1475 1476 1478 1481 1483 1484 1495 1499 1498 1498 1499 1500 1502 1504 1507 1508 1510 1512 1518 1525 1529 1533 1538 1539 1540 1538 1538 1537 1536 1533 1533 1532 1533 1534 1534 1533 1533
1493 1489 1488 1486 1482 1481 1481 1480 1480 1483 1486 1488 1488 1489 1502 1502 1502 1501 1502 1504 1506 1508 1510 1512 1513 1518 1523 1527 1538 1543 1546 1541 1541 1541 1540 1539 1537 1532 1531 1531 1531 1531 1530 1530 1529
1498 1494 1491 1490 1489 1487 1487 1489 1489 1489 1490 1491 1493 1498 1505 1505 1505 1505 1506 1507 1509 1510 1513 1515 1517 1526 1532 1533 1544 1542 1545 1544 1542 1543 1541 1541 1537 1528 1528 1528 1525 1524 1524 1524 1524
1502 1499 1496 1493 1493 1493 1492 1494 1498 1501 1499 1501 1505 1504 1507 1508 1508 1508 1509 1510 1511 1512 1521 1522 1530 1546 1541 1537 1538 1540 1541 1543 1543 1544 1544 1540 1537 1525 1522 1521 1517 1516 1517 1516 1516
1503 1502 1501 1500 1498 1497 1497 1495 1498 1504 1507 1509 1510 1509 1509 1508 1511 1511 1512 1513 1514 1523 1524 1531 1542 1541 1540 1537 1539 1540 1543 1546 1546 1545 1546 1544 1530 1518 1515 1512 1511 1511 1510 1510 1511
1504 1503 1503 1503 1503 1503 1501 1501 1501 1502 1505 1512 1513 1513 1514 1514 1515 1515 1515 1517 1521 1527 1530 1536 1542 1539 1538 1540 1541 1547 1547 1549 1549 1548 1549 1548 1531 1516 1510 1510 1508 1508 1507 1508 1509
1505 1503 1503 1504 1506 1504 1505 1505 1505 1504 1518 1523 1517 1518 1518 1516 1519 1519 1518 1520 1525 1533 1535 1541 1540 1539 1541 1543 1543 1543 1549 1548 1549 1552 1551 1552 1542 1521 1509 1508 1506 1504 1505 1505 1506
1506 1504 1504 1503 1504 1504 1506 1505 1504 1506 1540 1531 1524 1522 1521 1519 1523 1523 1521 1521 1528 1533 1536 1544 1542 1541 1542 1545 1544 1547 1548 1550 1552 1556 1563 1554 1558 1517 1513 1503 1500 1500 1501 1502 1504
1509 1506 1505 1504 1504 1504 1503 1502 1505 1520 1552 1536 1527 1526 1523 1523 1525 1526 1524 1525 1531 1534 1538 1543 1543 1543 1545 1545 1545 1548 1550 1556 1559 1560 1564 1556 1558 1523 1511 1502 1498 1497 1497 1499 1501
1510 1508 1505 1503 1504 1503 1503 1503 1518 1544 1542 1540 1535 1532 1532 1533 1530 1530 1531 1534 1537 1547 1547 1546 1546 1545 1544 1546 1547 1549 1553 1568 1562 1572 1550 1559 1560 1516 1501 1499 1497 1497 1497 1497 1498
1509 1508 1506 1503 1501 1501 1503 1506 1536 1544 1540 1537 1535 1533 1535 1536 1536 1536 1536 1539 1539 1541 1552 1555 1560 1546 1545 1545 1547 1550 1552 1569 1560 1563 1566 1560 1548 1506 1495 1494 1494 1494 1494 1495 1495
1508 1507 1506 1504 1502 1501 1502 1532 1542 1538 1534 1534 1534 1537 1539 1538 1538 1539 1542 1543 1541 1541 1545 1547 1549 1546 1546 1546 1547 1551 1556 1558 1576 1581 1566 1554 1533 1501 1490 1490 1491 1491 1491 1491 1493
1507 1506 1506 1503 1501 1500 1505 1531 1532 1532 1532 1533 1534 1537 1539 1540 1539 1540 1543 1541 1541 1542 1543 1547 1552 1549 1547 1547 1549 1550 1554 1560 1567 1564 1555 1542 1543 1513 1496 1485 1486 1487 1486 1487 1490
1507 1507 1507 1503 1502 1502 1527 1533 1531 1531 1531 1533 1535 1537 1538 1538 1539 1542 1541 1540 1540 1542 1542 1546 1555 1556 1550 1550 1550 1551 1554 1557 1560 1561 1551 1549 1516 1498 1494 1487 1485 1486 1486 1487 1487
1507 1509 1508 1505 1506 1516 1530 1526 1528 1530 1530 1531 1533 1534 1537 1538 1539 1541 1541 1539 1538 1540 1543 1545 1552 1559 1550 1547 1547 1548 1550 1552 1551 1555 1550 1553 1520 1488 1488 1487 1487 1486 1485 1485 1485
1511 1511 1510 1507 1521 1527 1526 1527 1527 1529 1530 1533 1533 1533 1535 1537 1538 1539 1539 1538 1539 1540 1543 1544 1553 1561 1549 1548 1547 1547 1546 1547 1549 1552 1549 1548 1511 1487 1487 1487 1486 1485 1484 1483 1482
1515 1517 1514 1512 1518 1521 1526 1529 1529 1529 1530 1530 1532 1533 1534 1535 1538 1538 1537 1538 1538 1539 1540 1542 1550 1546 1551 1538 1542 1545 1541 1542 1541 1545 1534 1515 1500 1483 1485 1487 1483 1482 1481 1479 1476
1520 1525 1525 1528 1523 1524 1525 1528 1530 1531 1531 1531 1532 1532 1534 1538 1537 1538 1536 1538 1538 1538 1539 1542 1547 1552 1545 1541 1540 1535 1531 1535 1534 1523 1522 1498 1500 1477 1487 1486 1481 1479 1476 1473 1469
1525 1527 1526 1526 1526 1525 1527 1529 1527 1528 1530 1531 1531 1529 1532 1533 1533 1535 1534 1536 1534 1538 1540 1541 1542 1545 1541 1532 1533 1529 1522 1521 1518 1517 1510 1505 1493 1484 1480 1481 1477 1473 1471 1466 1462
1526 1527 1527 1529 1528 1528 1527 1527 1527 1527 1526 1527 1527 1530 1532 1528 1526 1526 1526 1527 1528 1533 1538 1541 1543 1547 1539 1533 1529 1517 1501 1501 1503 1502 1498 1506 1471 1477 1474 1475 1473 1468 1465 1461 1457